Weather in Inhulets

Ukraine / Dnipropetrovsk Region     47°40′44″N   33°10′13″E
temp.,
°C
wind,
m/s
gust,
m/s
humid.,
%
clouds,
%
prec.,
mm/h
press.,
hPa
HPBL,
m
21 april, wed
wed2100:00+7w4980100 0.0 1008174
03:00+6w4884100 0.0 1010163
06:00+5w368556 0.0 1012111
09:00+11w46625 0.0 1014567
12:00+15wsw684469 0.0 10142153
15:00+14wsw4748100 0.0 10141815
18:00+14wsw565099 0.1 10151084
21:00+10sw236614 0.2 101764
22 april, thu
thu2200:00+8sw37855 0.0 1018144
03:00+7sw34895 0.0 101972
06:00+6sw33925 0.0 102053
09:00+12ssw45685 0.0 1021469
12:00+16ssw55489 0.8 10211681
15:00+17ssw5541100 1.4 10202064
18:00+15ssw365387 0.0 1019485
21:00+11ssw37700 0.0 1020140
23 april, fri
fri2300:00+9s410840 0.0 1020226
03:00+8s511919 0.0 1020262
06:00+7s512925 0.0 1019273
09:00+11s61376100 0.0 1019503
12:00+17ssw91252100 0.0 10171566
15:00+16ssw101352100 0.9 10161681
18:00+11sw71190100 3.1 1017789
21:00+8nw4691100 9.0 1018378
24 april, sat
sat2400:00+7nnw4685100 1.5 1018452
03:00+5wnw36920 1.5 1019175
06:00+4w37910 0.0 1019170
09:00+9w58635 0.0 1019801
12:00+11w91148100 0.1 10192264
15:00+10w9133797 0.1 10202540
18:00+10nw894413 0.0 10202229
21:00+5wnw36580 0.0 1022158
25 april, sun
sun2500:00+4w35640 0.0 102391
03:00+3wnw34670 0.0 102368
06:00+2w23700 0.0 102240
09:00+8wsw34510 0.0 1022533
12:00+12wsw4434100 0.0 10211704
15:00+13w463475 0.0 10202286
18:00+13wsw4639100 0.0 10182046
21:00+8nw4680100 0.5 1020763